Jackpot

Texas Poker Multi Jackpot System

Kini Telah hadir Jackpot SUPER ROYAL FLUSH

Kini Telah hadir Jackpot 2000 (khusus table VIP keatas).

Ikutilah global jackpot yang tersedia di system kami, dengan system jackpot terbaru dan pertama di indonesia, anda dapat membeli jackpot dengan harga 100 rupiah saja dan menangkan hadiahnya hingga puluhan juta rupiah.

Jackpot bukanlah suatu keharusan untuk dibeli, namun kami memberikan suatu fitur tambahan untuk member tercinta dari www.pokertexasboya.com.

Terdapat tiga pilihan harga jackpot yang bisa anda beli yaitu :100,500,1000 dan 2000(khusus table VIP Keatas) rupiah.

Hadiah dari Multi jackpot system www.pokertexasboya.com

  1. full house x 10 harga jackpot yang anda beli.
      (contoh:anda membeli 1000 maka:1000 X10 = 10.000)
  2. four of kind x 250 harga jackpot yang anda beli
      (contoh:anda membeli 1000 maka:1000 X250 = 250.000)
  3. Straight flush x 1200
      (contoh:anda membeli 1000 maka:1000 X1200 = 1.200.000)
  4. Royal flush x 10000 harga jackpot yang anda beli
      (contoh:anda membeli 1000 maka:1000 X10000 = 10.000.000)
  5. SUPER ROYAL FLUSH x 30000 harga jackpot yang anda beli
      (contoh:anda membeli 1000 maka:1000 X30000 = 30.000.000)

Kondisi kartu

  1. full house adalah kondisi kartu dimana kartu anda dan kartu tengah dengan total 7 kartu bisa mendapatkan nilai 5 kartu dengan kombinasi 1 tris(three of kind) dan 1 pair, contoh 3 kartu 10 dan 2 kartu 5
  2. Four of kind adalah kondisi kartu dimana kartu anda dan kartu tengah dengan total 7 kartu bisa mendapatkan nilai 5 kartu dengan kombinasi 4 kartu yang sama jumlah dan 1 kartu apapun juga contoh anda mendapatkan 4 buah kartu angka 3 dan 1 kartu apapun.
  3. Staright flush adalah kondisi kartu dimana kartu anda dan kartu tengah dengan total 7 kartu bisa mendapatkan nilai 5 kartu dengan kombinasi seri / staright dengan kembang yang sama contoh : urutan kartu dari angka 5, 6, 7, 8 , 9 10 dengan kembang yg sama misalnya as hati
  4. Royal flush adalah kondisi kartu dimana kartu anda dan kartu tengah dengan total 7 kartu bisa mendapatkan nilai 5 kartu dengan kombinasi seri / staright dengan kembang yang sama tetapi kartu tersebut haruslah dimulai dari 10. contoh 10, Queen, Jack, King dan aces dengan kembang yang sama
  5. Super Royal flush adalah kondisi kartu dimana Kedua kartu anda digabung dengan 3 kartu pertama meja haruslah royal flush. contoh kartu anda 10,Queen kembang sama dan 3 kartu pertama meja adalah Jack, King dan aces dengan kembang yang sama

Demikian adalah penjelasan dari Multi Jackpot www.pokertexasboya.com terima kasih dan selamat bermain salam hoki dari kami

Texas Poker Jackpot Winner

TOP SUPER ROYAL FLUSH
No.TanggalNamaPriceWin
119/08 11:52E049306FSuper Royal flush3,000,000
219/08 02:49RD1515Super Royal flush3,000,000
319/08 01:39BIGBRO303Super Royal flush6,000,000
419/08 01:01CE5FB6B6Super Royal flush3,000,000
519/08 00:59TURBO339Super Royal flush6,000,000
TOP ROYAL FLUSH
No.TanggalNamaPriceWin
119/08 14:352NDACCRoyal flush2,000,000
219/08 14:15EDOYS99Royal flush10,000,000
319/08 13:57R_TREJORoyal flush20,000,000
419/08 13:53TEMBUSSS9Royal flush5,000,000
519/08 13:28HERDIBOY84Royal flush1,000,000
TOP STRAIGHT FLUSH
No.TanggalNamaPriceWin
119/08 14:50DEACTIONStraight Flush120,000
219/08 14:50NEPAL82Straight Flush600,000
319/08 14:50ASU1234DDDStraight Flush240,000
419/08 14:47CINTA12AStraight Flush600,000
519/08 14:46KODON66Straight Flush120,000
LATEST JACKPOT
No.TanggalNamaPriceWin
119/08 14:53PISOK66Full House2,000
219/08 14:53BA7826BEFull House20,000
319/08 14:52TOMMO2Full House2,000
419/08 14:52WILUP2930Full House20,000
519/08 14:52HAMMEN12Full House5,000
619/08 14:52CHODETAJAFull House2,000
719/08 14:52ALODIAFull House10,000
819/08 14:52NODONKFull House5,000
919/08 14:52AGOEFull House2,000
1019/08 14:52GIL0BABBIIFull House2,000
1119/08 14:52OF5RUYDQ3IFull House5,000
1219/08 14:52S54N4HNZ5Full House5,000
1319/08 14:52SEK_SII00Full House2,000
1419/08 14:52TIPEXIIIFull House5,000
1519/08 14:52BMW128Full House2,000
1619/08 14:52BOYIK123Full House10,000
1719/08 14:52NYET8888Full House20,000
1819/08 14:52GK_IKL4SFull House1,000
1919/08 14:52NONA420Full House1,000
2019/08 14:52PIPULZFull House5,000
2119/08 14:52SOPOTV44Full House1,000
2219/08 14:52SELOSO27Full House10,000
2319/08 14:52ONEPIECE95Full House5,000
2419/08 14:52MT13Four Of A Kind50,000
2519/08 14:52DIAMON99Full House2,000
2619/08 14:52JARRWOOFull House2,000
2719/08 14:52PASUNG877Full House1,000
2819/08 14:52WB432Full House1,000
2919/08 14:52CAPCUZ9Full House10,000
3019/08 14:52RONEDOFull House5,000
3119/08 14:52NOVY94Full House2,000
3219/08 14:52HARUN12Full House1,000
3319/08 14:52YOKA05Full House5,000
3419/08 14:52BANISTA_23Full House1,000
3519/08 14:52BAGA12Full House2,000
3619/08 14:52KEKET1997Full House1,000
3719/08 14:52ZYREY99Full House10,000
3819/08 14:52JOEL2305Full House1,000
3919/08 14:52DANANG171Full House2,000
4019/08 14:52D4NUKKFull House10,000
4119/08 14:52MHI12479Full House5,000
4219/08 14:52B9ZQBAVKEFull House20,000
4319/08 14:52BARON59Full House10,000
4419/08 14:52WATWATGAWOFull House500
4519/08 14:52ESKANORFull House5,000
4619/08 14:52ADLI1Full House10,000
4719/08 14:52LESI39Full House2,000
4819/08 14:52MONK3Y88Full House10,000
4919/08 14:52BUGI2808Full House10,000
5019/08 14:52RAYUNKFour Of A Kind25,000

Domino Multi Jackpot System

Ikutilah global jackpot yang tersedia di system kami, dengan system jackpot terbaru dan pertama di indonesia, anda dapat membeli jackpot dengan harga 100 rupiah saja dan menangkan hadiahnya hingga puluhan juta rupiah.

Jackpot bukanlah suatu keharusan untuk dibeli, namun kami memberikan suatu fitur tambahan untuk member tercinta dari www.pokertexasboya.com.

Terdapat tiga pilihan harga jackpot yang bisa anda beli yaitu :100,500 dan 1000 rupiah.

Hadiah dari Multi jackpot system www.pokertexasboya.com

  1. Murni Kecil x 50 harga jackpot yang anda beli.
      (contoh:anda membeli 1000 maka:1000 X 50 = 50.000)
  2. Murni Besar x 50 harga jackpot yang anda beli
      (contoh:anda membeli 1000 maka:1000 X 50 = 50.000)
  3. BALAK x 100 harga jackpot yang anda beli
      (contoh:anda membeli 1000 maka:1000 X 100 = 100.000)
  4. ENAM DEWA x 6666 harga jackpot yang anda beli
      (contoh:anda membeli 1000 maka:1000 X 6666 = 6.666.000)

Demikian adalah penjelasan dari Multi Jackpot www.pokertexasboya.com terima kasih dan selamat bermain salam hoki dari kami

Domino Jackpot Winner

TOP ENAM DEWA
No.TanggalNamaPriceWin
119/08 14:31COBADREmurni enam3,333,000
219/08 14:17EGA531murni enam3,333,000
319/08 14:01GAPLEXXXmurni enam6,666,000
419/08 13:26OIWEI98LPEmurni enam3,333,000
519/08 09:13JADALOmurni enam666,600
TOP BALAK
No.TanggalNamaPriceWin
119/08 14:51JACK_KOR89balak100,000
219/08 14:50PBYCCWSHY4balak100,000
319/08 14:49APUD001balak100,000
419/08 14:48NDUT0111balak50,000
519/08 14:43DBONGES93balak100,000
LATEST JACKPOT
No.TanggalNamaPriceWin
119/08 14:52ZAY9lucky99700,000
219/08 14:51Y4TP1WWELHmurni besar25,000
319/08 14:51ALICIA18murni besar25,000
419/08 14:51JACK_KOR89balak100,000
519/08 14:51RAKENJOGmurni kecil5,000
619/08 14:51RIZALLUNGmurni besar50,000
719/08 14:51OCID26murni besar25,000
819/08 14:50LOVEDOLAR1murni kecil5,000
919/08 14:50L0DEHmurni kecil50,000
1019/08 14:50PBYCCWSHY4balak100,000
1119/08 14:50JACKORABU3murni kecil50,000
1219/08 14:49JOIN12murni kecil5,000
1319/08 14:49APUD001balak100,000
1419/08 14:49ENDARNATAmurni kecil50,000
1519/08 14:49SIMAT76murni kecil25,000
1619/08 14:48TEMPUR485murni kecil50,000
1719/08 14:48BP884180lucky9925,000
1819/08 14:48NDUT0111balak50,000
1919/08 14:47BAROSS99murni besar5,000
2019/08 14:47MUS4NG88lucky9950,000
2119/08 14:47MONALmurni kecil50,000
2219/08 14:46TOBO99murni besar25,000
2319/08 14:46YUITIGVU5Dmurni besar25,000
2419/08 14:45INDAHNYA22murni besar5,000
2519/08 14:45ANGEL222murni kecil5,000
2619/08 14:44BOY_MAEL2murni kecil50,000
2719/08 14:44ZOKER05454murni besar25,000
2819/08 14:43DBONGES93balak100,000
2919/08 14:43SAWITTO23lucky9925,000
3019/08 14:43MAMAT123murni besar5,000
3119/08 14:42QTQVNCJATVmurni besar50,000
3219/08 14:42WAWE87murni besar5,000
3319/08 14:41INDAHNYA22balak50,000
3419/08 14:41LB997838murni kecil25,000
3519/08 14:41PB9murni besar50,000
3619/08 14:40DARAHKU99balak50,000
3719/08 14:40METROPANCAmurni kecil50,000
3819/08 14:40POKES9999murni besar5,000
3919/08 14:40MIE01murni kecil50,000
4019/08 14:39ADIUGEMEmurni kecil50,000
4119/08 14:39BAROSS99murni besar5,000
4219/08 14:39BPJS6666balak10,000
4319/08 14:39ZZ0L4balak50,000
4419/08 14:38NDUT0111lucky9910,000
4519/08 14:38SARITONK88lucky9950,000
4619/08 14:38MYIRWANmurni kecil50,000
4719/08 14:38NENDYTObalak10,000
4819/08 14:38NUGROHO_08balak100,000
4919/08 14:38CLASSIC12balak10,000
5019/08 14:36CHAS06murni kecil25,000

Ceme Multi Jackpot System

Jackpot dilihat dari gabungan kartu pemain dengan kartu bandar. Bandar harus membeli jackpot sebanyak jumlah player yang sedang duduk. Sebagai contoh bila terdapat 3 pemain duduk bermain, dan bandar memutuskan untuk membeli jackpot Rp 1.000, maka pada periode tersebut bandar akan membeli jackpot sebanyak 3xRp1.000 = Rp3.000.

Jackpot bukanlah suatu keharusan untuk dibeli, namun kami memberikan suatu fitur tambahan untuk member tercinta dari www.pokertexasboya.com.

Terdapat tiga pilihan harga jackpot yang bisa anda beli yaitu :100,500 dan 1000 rupiah.

Hadiah dari Multi jackpot system www.pokertexasboya.com

  1. Murni Kecil x 50 harga jackpot yang anda beli.
      (contoh:anda membeli 1000 maka:1000 X 50 = 50.000)
  2. Murni Besar x 50 harga jackpot yang anda beli
      (contoh:anda membeli 1000 maka:1000 X 50 = 50.000)
  3. BALAK x 200 harga jackpot yang anda beli
      (contoh:anda membeli 1000 maka:1000 X 200 = 200.000)
  4. ENAM DEWA x 6666 harga jackpot yang anda beli
      (contoh:anda membeli 1000 maka:1000 X 6666 = 6.666.000)

Demikian adalah penjelasan dari Multi Jackpot www.pokertexasboya.com terima kasih dan selamat bermain salam hoki dari kami

Ceme Jackpot Winner

TOP ENAM DEWA
No.TanggalNamaPriceWin
119/08 14:46NRRNmurni enam6,666,000
219/08 14:46CECE789murni enam6,666,000
319/08 14:33KUNCLUNG99murni enam6,666,000
419/08 14:28DWBTYAT989murni enam666,600
519/08 14:28NOBERIC3murni enam6,666,000
TOP BALAK
No.TanggalNamaPriceWin
119/08 14:52BOWER86balak200,000
219/08 14:52UD7ARQ4G3Fbalak100,000
319/08 14:52MARGEDEK86balak100,000
419/08 14:52LINGG4balak200,000
519/08 14:52CANDRAbalak200,000
LATEST JACKPOT
No.TanggalNamaPriceWin
119/08 14:52BOWER86balak200,000
219/08 14:52UD7ARQ4G3Fbalak100,000
319/08 14:52KAJANG9999murni besar50,000
419/08 14:52KANDANG12murni kecil50,000
519/08 14:52UWAY_UHUYmurni kecil5,000
619/08 14:52MARGEDEK86balak100,000
719/08 14:52GNYNCN6BY0murni besar50,000
819/08 14:52LINGG4balak200,000
919/08 14:52QQTRUS9murni besar50,000
1019/08 14:52OJOKLHmurni kecil50,000
1119/08 14:52STOKNYU007murni kecil5,000
1219/08 14:52AMRICA88murni besar50,000
1319/08 14:52CANDRAbalak200,000
1419/08 14:52KNDRbalak200,000
1519/08 14:51DEBISA02murni kecil25,000
1619/08 14:51CUM11murni kecil50,000
1719/08 14:51DHAFA0815murni kecil50,000
1819/08 14:51SKUMSSSmurni kecil50,000
1919/08 14:51KRUCIL23murni kecil50,000
2019/08 14:51KIRAN71murni kecil50,000
2119/08 14:51UMBRO43murni kecil25,000
2219/08 14:51ZA0505ZAmurni kecil50,000
2319/08 14:51JIMBO44murni besar50,000
2419/08 14:51MWADP16027murni kecil50,000
2519/08 14:51LEHOR53murni kecil50,000
2619/08 14:51ENFZEPN2ZWmurni kecil50,000
2719/08 14:51GENK69murni kecil50,000
2819/08 14:51NAGAAING19murni kecil50,000
2919/08 14:51GHOSENK57balak20,000
3019/08 14:51KRUCIL24balak100,000
3119/08 14:51471471balak20,000
3219/08 14:51SIMISKIN1Sbalak200,000
3319/08 14:50JEPANG08balak200,000
3419/08 14:50UL4Y168balak100,000
3519/08 14:50SEPTI182balak200,000
3619/08 14:50OZI_ELLA92murni besar25,000
3719/08 14:50INCE_YENImurni besar50,000
3819/08 14:50NHAZWAmurni besar5,000
3919/08 14:50KRUCIL23murni besar50,000
4019/08 14:50JOKKULITmurni kecil25,000
4119/08 14:50OKTOVIAN23murni kecil50,000
4219/08 14:50SILA0512murni besar5,000
4319/08 14:50PHAYHYQZMSmurni kecil25,000
4419/08 14:50YONO150murni kecil25,000
4519/08 14:50HOKYDONG25balak20,000
4619/08 14:49FINA777murni kecil25,000
4719/08 14:49ROMILmurni kecil50,000
4819/08 14:49VIRAA01murni kecil50,000
4919/08 14:49ABVV699137murni kecil5,000
5019/08 14:49M0ROKOLbalak100,000